Forside
METAR-TAF:

METAR-TAF

Lufthavne :

Iowa City Municipal Airport

Iowa City, Iowa, USA

Breddekreds: 41-37-58N, længdekreds: 091-32-35W, højde: 203 m

Aktuelle vejr

Denne rapport blev lavet for 49 minutter siden, kl. 15:52 UTC
Vind 6 kt fra nord
Temperatur 27°C
Fugtighed 42%
Tryk 1021 hPa
Sigt: 16.1 km
skyfri

METAR: KIOW 031552Z AUTO 36006KT 10SM CLR 27/13 A3015 RMK AO2 SLP204 T02670128

Tid: 11:41 (16:41 UTC)


TAF: fraværende

Vejrobservationer og prognoser fra mere end 4000 lufthavne (METAR og TAF).

De gule og røde prikker repræsenterer de meteorologiske stationer.

Flyt musen over at se navnet på stationen.

Så klik over at se vejr observationer og prognoser.

At skifte det kort: Klik på de grønne knapper med et sort kors for at zoome ind; på den grønne knap med en bindestreg for at zoome ud; eller på de grønne pile for tilstødende kort.


METAR-TAF: